DERBW EDXW-EKCH

Flight info

Callsign DERBW
Flight time N/A
Altitude 7000
Route OLDIP1B OLDIP DCT DOSUR P729 TUDLO
Aircraft DA62/L-SDFGRY/C

Departure

Time 2026-04-14 16:32
Airport Westerland Sylt Airport (EDXW)

Arrival

Time N/A
Airport Copenhagen Kastrup Airport (EKCH)
Time Latitude Longitude Altitude Speed Heading
2026-04-14 16:14 54.91109 8.32740 33 ft 0 kts 52°
2026-04-14 16:25 54.91116 8.32806 33 ft 12 kts 130°
2026-04-14 16:25 54.91087 8.32853 33 ft 0 kts 133°
2026-04-14 16:25 54.91065 8.32897 33 ft 15 kts 131°
2026-04-14 16:26 54.90984 8.33056 33 ft 20 kts 137°
2026-04-14 16:26 54.90859 8.33187 33 ft 22 kts 161°
2026-04-14 16:26 54.90712 8.33221 33 ft 20 kts 177°
2026-04-14 16:26 54.90582 8.33252 33 ft 18 kts 178°
2026-04-14 16:27 54.90466 8.33296 33 ft 17 kts 158°
2026-04-14 16:27 54.90366 8.33409 33 ft 18 kts 136°
2026-04-14 16:27 54.90290 8.33588 34 ft 19 kts 115°
2026-04-14 16:27 54.90262 8.33738 34 ft 20 kts 101°
2026-04-14 16:28 54.90240 8.33989 34 ft 22 kts 96°
2026-04-14 16:28 54.90249 8.34250 34 ft 13 kts 76°
2026-04-14 16:28 54.90263 8.34339 34 ft 8 kts 59°
2026-04-14 16:28 54.90319 8.34483 34 ft 17 kts 51°
2026-04-14 16:29 54.90408 8.34635 34 ft 19 kts 41°
2026-04-14 16:29 54.90506 8.34790 35 ft 19 kts 41°
2026-04-14 16:29 54.90531 8.34831 35 ft 0 kts 42°
2026-04-14 16:30 54.90532 8.34833 35 ft 3 kts 39°
2026-04-14 16:31 54.90597 8.34926 35 ft 14 kts 22°
2026-04-14 16:31 54.90732 8.34775 34 ft 54 kts 325°
2026-04-14 16:31 54.91178 8.34272 175 ft 86 kts 322°
2026-04-14 16:31 54.91773 8.33953 514 ft 95 kts 358°
2026-04-14 16:32 54.92420 8.34377 806 ft 109 kts 23°
2026-04-14 16:32 54.93151 8.34908 1171 ft 114 kts 20°
2026-04-14 16:32 54.93989 8.35154 1391 ft 127 kts 356°
2026-04-14 16:32 54.94894 8.34816 1533 ft 140 kts 346°
2026-04-14 16:33 54.95839 8.34361 1638 ft 143 kts 345°
2026-04-14 16:33 54.96815 8.33884 1713 ft 148 kts 345°
2026-04-14 16:33 54.97865 8.33602 1597 ft 156 kts
2026-04-14 16:33 54.98889 8.33788 1718 ft 145 kts
2026-04-14 16:34 54.99903 8.33994 1665 ft 148 kts
2026-04-14 16:34 55.00912 8.34272 1666 ft 144 kts 15°
2026-04-14 16:34 55.01850 8.34778 1717 ft 139 kts 22°
2026-04-14 16:34 55.02753 8.35307 1787 ft 135 kts 17°
2026-04-14 16:35 55.03685 8.35716 1740 ft 141 kts 16°
2026-04-14 16:35 55.04628 8.36203 1713 ft 141 kts 22°
2026-04-14 16:35 55.05544 8.36832 1648 ft 144 kts 26°
2026-04-14 16:35 55.06429 8.37577 1650 ft 143 kts 36°
2026-04-14 16:36 55.06972 8.39015 1436 ft 150 kts 79°
2026-04-14 16:36 55.07034 8.40808 1494 ft 138 kts 94°
2026-04-14 16:36 55.06976 8.42289 1896 ft 113 kts 97°
2026-04-14 16:36 55.06900 8.43603 2140 ft 101 kts 98°
2026-04-14 16:37 55.06827 8.44752 2392 ft 95 kts 97°
2026-04-14 16:37 55.06842 8.45931 2625 ft 100 kts 81°
2026-04-14 16:37 55.07069 8.47139 2814 ft 107 kts 76°
2026-04-14 16:37 55.07281 8.48362 3115 ft 103 kts 75°
2026-04-14 16:38 55.07526 8.49537 3369 ft 105 kts 77°
2026-04-14 16:38 55.07668 8.50826 3553 ft 112 kts 83°
2026-04-14 16:38 55.07807 8.52140 3821 ft 110 kts 77°
2026-04-14 16:38 55.08078 8.53374 4083 ft 110 kts 73°
2026-04-14 16:39 55.08235 8.54767 4148 ft 126 kts 83°
2026-04-14 16:39 55.08324 8.56343 4251 ft 132 kts 88°
2026-04-14 16:39 55.08357 8.57879 4603 ft 119 kts 87°
2026-04-14 16:39 55.08477 8.59226 5009 ft 107 kts 77°
2026-04-14 16:40 55.08758 8.60420 5268 ft 108 kts 67°
2026-04-14 16:40 55.09077 8.61635 5496 ft 112 kts 64°
2026-04-14 16:40 55.09395 8.62892 5721 ft 114 kts 72°
2026-04-14 16:40 55.09597 8.64271 5893 ft 121 kts 83°
2026-04-14 16:41 55.09732 8.65798 6058 ft 125 kts 83°
2026-04-14 16:41 55.09891 8.67200 6464 ft 112 kts 77°
2026-04-14 16:41 55.10201 8.68407 6744 ft 112 kts 56°
2026-04-14 16:41 55.10814 8.69450 6758 ft 134 kts 35°
2026-04-14 16:42 55.11555 8.70588 6733 ft 150 kts 54°
2026-04-14 16:42 55.12107 8.72179 6753 ft 156 kts 68°
2026-04-14 16:42 55.12520 8.73976 6753 ft 162 kts 70°
2026-04-14 16:42 55.12934 8.75830 6753 ft 165 kts 70°
2026-04-14 16:43 55.13357 8.77716 6750 ft 167 kts 71°
2026-04-14 16:43 55.13784 8.79615 6750 ft 168 kts 71°
2026-04-14 16:43 55.14214 8.81525 6751 ft 169 kts 70°
2026-04-14 16:43 55.14642 8.83417 6750 ft 170 kts 71°
2026-04-14 16:44 55.15081 8.85341 6749 ft 170 kts 71°
2026-04-14 16:44 55.15521 8.87262 6746 ft 170 kts 70°
2026-04-14 16:44 55.15964 8.89181 6747 ft 170 kts 70°
2026-04-14 16:45 55.16857 8.93014 6748 ft 170 kts 70°
2026-04-14 16:45 55.17309 8.94936 6748 ft 171 kts 70°
2026-04-14 16:45 55.17760 8.96856 6747 ft 170 kts 71°
2026-04-14 16:45 55.18214 8.98769 6750 ft 171 kts 71°
2026-04-14 16:46 55.18670 9.00667 6803 ft 166 kts 70°
2026-04-14 16:46 55.19121 9.02529 6837 ft 166 kts 71°
2026-04-14 16:46 55.19560 9.04347 6944 ft 162 kts 70°
2026-04-14 16:46 55.20006 9.06170 6959 ft 164 kts 70°
2026-04-14 16:47 55.20467 9.08055 6962 ft 172 kts 71°
2026-04-14 16:47 55.20942 9.10008 6961 ft 176 kts 71°
2026-04-14 16:47 55.21427 9.12000 6959 ft 178 kts 71°
2026-04-14 16:47 55.21913 9.14007 6965 ft 179 kts 72°
2026-04-14 16:48 55.22253 9.16102 6963 ft 179 kts 80°
2026-04-14 16:48 55.22538 9.18227 6964 ft 179 kts 81°
2026-04-14 16:48 55.22820 9.20353 6962 ft 179 kts 81°
2026-04-14 16:48 55.23102 9.22477 6961 ft 179 kts 81°
2026-04-14 16:49 55.23384 9.24597 6964 ft 178 kts 81°
2026-04-14 16:49 55.23491 9.26733 6963 ft 176 kts 94°
2026-04-14 16:49 55.23551 9.28879 6962 ft 177 kts 87°
2026-04-14 16:49 55.23718 9.31017 6961 ft 177 kts 85°
2026-04-14 16:50 55.23890 9.33131 6963 ft 173 kts 86°
2026-04-14 16:50 55.24058 9.35205 6958 ft 171 kts 86°
2026-04-14 16:50 55.24224 9.37209 6961 ft 166 kts 86°
2026-04-14 16:50 55.24389 9.39186 6963 ft 162 kts 85°
2026-04-14 16:51 55.24552 9.41131 6958 ft 160 kts 86°
2026-04-14 16:51 55.24715 9.43055 6960 ft 159 kts 86°
2026-04-14 16:51 55.24878 9.44961 6959 ft 158 kts 86°
2026-04-14 16:51 55.25040 9.46863 6961 ft 157 kts 86°
2026-04-14 16:52 55.25202 9.48735 6961 ft 157 kts 86°
2026-04-14 16:52 55.25365 9.50625 6961 ft 157 kts 86°
2026-04-14 16:52 55.25529 9.52511 6960 ft 156 kts 86°
2026-04-14 16:52 55.25694 9.54390 6960 ft 155 kts 86°
2026-04-14 16:53 55.25859 9.56260 6959 ft 155 kts 86°
2026-04-14 16:53 55.26027 9.58133 6962 ft 155 kts 86°
2026-04-14 16:53 55.26257 9.59994 6959 ft 156 kts 80°
2026-04-14 16:53 55.26535 9.61833 6960 ft 156 kts 80°
2026-04-14 16:54 55.26815 9.63669 6959 ft 156 kts 80°
2026-04-14 16:54 55.27096 9.65505 6955 ft 156 kts 80°
2026-04-14 16:54 55.27376 9.67344 6958 ft 156 kts 80°
2026-04-14 16:54 55.27659 9.69190 6960 ft 156 kts 80°
2026-04-14 16:55 55.27941 9.71025 6958 ft 156 kts 80°
2026-04-14 16:55 55.28224 9.72856 6966 ft 155 kts 80°
2026-04-14 16:55 55.28507 9.74685 6956 ft 155 kts 80°
2026-04-14 16:55 55.28790 9.76512 6957 ft 155 kts 80°
2026-04-14 16:56 55.29072 9.78313 6962 ft 155 kts 80°
2026-04-14 16:56 55.29357 9.80150 6958 ft 161 kts 80°
2026-04-14 16:56 55.29652 9.82098 6963 ft 169 kts 80°
2026-04-14 16:56 55.29956 9.84126 6964 ft 174 kts 80°
2026-04-14 16:57 55.30268 9.86194 6961 ft 176 kts 80°
2026-04-14 16:57 55.30584 9.88284 6966 ft 177 kts 80°
2026-04-14 16:57 55.30900 9.90381 6964 ft 178 kts 80°
2026-04-14 16:57 55.31217 9.92486 6966 ft 179 kts 80°
2026-04-14 16:58 55.31540 9.94595 6964 ft 179 kts 80°
2026-04-14 16:58 55.31864 9.96704 6963 ft 179 kts 80°
2026-04-14 16:58 55.32187 9.98818 6963 ft 179 kts 80°
2026-04-14 16:58 55.32510 10.00930 6962 ft 179 kts 80°
2026-04-14 16:59 55.32836 10.03042 6964 ft 179 kts 80°
2026-04-14 16:59 55.33161 10.05150 6965 ft 179 kts 80°
2026-04-14 16:59 55.33484 10.07261 6963 ft 179 kts 80°
2026-04-14 16:59 55.33805 10.09344 6963 ft 179 kts 80°
2026-04-14 17:00 55.34134 10.11448 6962 ft 178 kts 80°
2026-04-14 17:00 55.34465 10.13552 6964 ft 178 kts 80°
2026-04-14 17:00 55.34793 10.15649 6963 ft 178 kts 80°
2026-04-14 17:00 55.35119 10.17749 6890 ft 181 kts 80°
2026-04-14 17:01 55.35456 10.19936 6665 ft 189 kts 80°
2026-04-14 17:01 55.35802 10.22157 6434 ft 187 kts 80°
2026-04-14 17:01 55.36146 10.24360 6200 ft 186 kts 80°
2026-04-14 17:01 55.36493 10.26545 5980 ft 184 kts 80°
2026-04-14 17:02 55.36835 10.28648 5967 ft 174 kts 80°
2026-04-14 17:02 55.37161 10.30647 5966 ft 167 kts 80°
2026-04-14 17:02 55.37480 10.32584 5963 ft 163 kts 80°
2026-04-14 17:02 55.37799 10.34482 5965 ft 161 kts 80°
2026-04-14 17:03 55.38122 10.36356 5964 ft 159 kts 80°
2026-04-14 17:03 55.38440 10.38213 5961 ft 158 kts 80°
2026-04-14 17:03 55.38754 10.40042 5961 ft 158 kts 80°
2026-04-14 17:03 55.39070 10.41892 5961 ft 158 kts 80°
2026-04-14 17:04 55.39391 10.43741 5961 ft 158 kts 80°
2026-04-14 17:04 55.39714 10.45586 5961 ft 157 kts 80°
2026-04-14 17:04 55.40034 10.47414 5962 ft 156 kts 80°
2026-04-14 17:04 55.40357 10.49245 5956 ft 157 kts 80°
2026-04-14 17:05 55.40680 10.51081 5954 ft 157 kts 80°
2026-04-14 17:05 55.41003 10.52917 5955 ft 157 kts 80°
2026-04-14 17:05 55.41326 10.54749 5951 ft 156 kts 80°
2026-04-14 17:05 55.41647 10.56576 5956 ft 156 kts 80°
2026-04-14 17:06 55.41966 10.58406 5958 ft 156 kts 80°
2026-04-14 17:06 55.42284 10.60234 5955 ft 156 kts 80°
2026-04-14 17:06 55.42602 10.62063 5956 ft 156 kts 80°
2026-04-14 17:06 55.42917 10.63867 5954 ft 156 kts 80°
2026-04-14 17:07 55.43234 10.65721 5952 ft 156 kts 80°
2026-04-14 17:07 55.43543 10.67531 5954 ft 156 kts 80°
2026-04-14 17:07 55.43857 10.69365 5949 ft 157 kts 80°
2026-04-14 17:07 55.44171 10.71202 5950 ft 156 kts 80°
2026-04-14 17:08 55.44482 10.73032 5949 ft 156 kts 80°
2026-04-14 17:08 55.44794 10.74860 5948 ft 155 kts 80°
2026-04-14 17:08 55.45105 10.76688 5948 ft 156 kts 80°
2026-04-14 17:08 55.45414 10.78492 5944 ft 156 kts 80°
2026-04-14 17:09 55.45727 10.80324 5948 ft 156 kts 80°
2026-04-14 17:09 55.46039 10.82157 5947 ft 156 kts 80°
2026-04-14 17:09 55.46347 10.83992 5947 ft 156 kts 80°
2026-04-14 17:09 55.46652 10.85822 5948 ft 155 kts 80°
2026-04-14 17:10 55.46957 10.87655 5922 ft 158 kts 81°
2026-04-14 17:10 55.47269 10.89537 5844 ft 164 kts 81°
2026-04-14 17:10 55.47589 10.91512 5745 ft 171 kts 80°
2026-04-14 17:10 55.47916 10.93595 5505 ft 181 kts 81°
2026-04-14 17:11 55.48250 10.95769 5247 ft 186 kts 81°
2026-04-14 17:11 55.48587 10.97982 4991 ft 187 kts 80°
2026-04-14 17:11 55.48916 11.00157 4962 ft 179 kts 81°
2026-04-14 17:11 55.49236 11.02246 4953 ft 174 kts 80°
2026-04-14 17:12 55.49547 11.04260 4948 ft 171 kts 81°
2026-04-14 17:12 55.49859 11.06272 4952 ft 169 kts 81°
2026-04-14 17:12 55.50167 11.08262 4952 ft 167 kts 81°
2026-04-14 17:12 55.50472 11.10244 4948 ft 167 kts 81°
2026-04-14 17:13 55.50772 11.12232 4941 ft 167 kts 81°
2026-04-14 17:13 55.51069 11.14207 4948 ft 167 kts 81°
2026-04-14 17:13 55.51266 11.15516 4949 ft 167 kts 81°
2026-04-14 17:13 55.51566 11.17494 4922 ft 167 kts 80°
2026-04-14 17:14 55.51873 11.19563 4568 ft 176 kts 81°
2026-04-14 17:14 55.52173 11.21552 4177 ft 168 kts 81°
2026-04-14 17:14 55.52473 11.23553 3924 ft 165 kts 81°
2026-04-14 17:14 55.52858 11.26158 3485 ft 168 kts 81°
2026-04-14 17:15 55.53064 11.27521 3194 ft 172 kts 81°
2026-04-14 17:15 55.53373 11.29486 3081 ft 160 kts 80°
2026-04-14 17:15 55.53677 11.31319 3019 ft 150 kts 80°
2026-04-14 17:15 55.53953 11.33011 3043 ft 139 kts 81°
2026-04-14 17:16 55.54219 11.34631 3080 ft 132 kts 80°
2026-04-14 17:16 55.54466 11.36064 3354 ft 114 kts 81°
2026-04-14 17:16 55.54722 11.37492 3242 ft 129 kts 79°
2026-04-14 17:16 55.55023 11.39010 3135 ft 128 kts 78°
2026-04-14 17:17 55.55338 11.40357 3272 ft 111 kts 75°
2026-04-14 17:17 55.55678 11.41636 3154 ft 117 kts 73°
2026-04-14 17:17 55.56032 11.42933 3095 ft 116 kts 74°
2026-04-14 17:17 55.56381 11.44243 3017 ft 116 kts 73°
2026-04-14 17:18 55.56737 11.45543 2938 ft 115 kts 73°
2026-04-14 17:18 55.57090 11.46839 2794 ft 119 kts 73°
2026-04-14 17:18 55.57434 11.48160 2701 ft 118 kts 75°
2026-04-14 17:18 55.57757 11.49471 2663 ft 112 kts 76°
2026-04-14 17:19 55.58061 11.50714 2667 ft 108 kts 76°
2026-04-14 17:19 55.58364 11.51914 2664 ft 105 kts 76°
2026-04-14 17:19 55.58662 11.53081 2663 ft 103 kts 75°
2026-04-14 17:19 55.58952 11.54232 2660 ft 102 kts 76°
2026-04-14 17:20 55.59239 11.55363 2661 ft 99 kts 75°
2026-04-14 17:20 55.59516 11.56471 2664 ft 103 kts 76°
2026-04-14 17:20 55.59818 11.57748 2668 ft 121 kts 76°
2026-04-14 17:20 55.60147 11.59204 2670 ft 133 kts 76°
2026-04-14 17:21 55.60474 11.60780 2669 ft 139 kts 80°
2026-04-14 17:21 55.60714 11.62461 2676 ft 143 kts 83°
2026-04-14 17:21 55.60945 11.64189 2675 ft 146 kts 83°
2026-04-14 17:21 55.61173 11.65921 2672 ft 147 kts 83°
2026-04-14 17:22 55.61401 11.67695 2677 ft 148 kts 83°
2026-04-14 17:22 55.61625 11.69481 2677 ft 149 kts 83°
2026-04-14 17:22 55.61849 11.71286 2674 ft 150 kts 83°
2026-04-14 17:22 55.62072 11.73092 2667 ft 150 kts 83°
2026-04-14 17:23 55.62301 11.74888 2667 ft 149 kts 83°
2026-04-14 17:23 55.62531 11.76675 2673 ft 149 kts 83°
2026-04-14 17:23 55.62761 11.78466 2675 ft 150 kts 82°
2026-04-14 17:23 55.62982 11.80270 2667 ft 150 kts 83°
2026-04-14 17:24 55.63199 11.82075 2672 ft 150 kts 83°
2026-04-14 17:24 55.63421 11.83874 2672 ft 149 kts 83°
2026-04-14 17:24 55.63646 11.85671 2674 ft 150 kts 83°
2026-04-14 17:24 55.63870 11.87483 2671 ft 151 kts 82°
2026-04-14 17:25 55.64093 11.89299 2668 ft 151 kts 83°
2026-04-14 17:25 55.64072 11.91112 2676 ft 147 kts 102°
2026-04-14 17:25 55.63921 11.92905 2668 ft 147 kts 102°
2026-04-14 17:25 55.63764 11.94690 2668 ft 147 kts 102°
2026-04-14 17:26 55.63494 11.96408 2666 ft 146 kts 115°
2026-04-14 17:26 55.63035 11.98041 2605 ft 150 kts 118°
2026-04-14 17:26 55.62525 11.99701 2193 ft 151 kts 119°
2026-04-14 17:26 55.62044 12.01227 1785 ft 127 kts 120°
2026-04-14 17:27 55.61656 12.02400 1420 ft 94 kts 120°
2026-04-14 17:27 55.61343 12.03381 1215 ft 88 kts 118°
2026-04-14 17:27 55.61058 12.04251 1072 ft 74 kts 118°
2026-04-14 17:27 55.60852 12.04991 957 ft 67 kts 113°
2026-04-14 17:28 55.60635 12.05761 906 ft 73 kts 115°
2026-04-14 17:28 55.60390 12.06601 844 ft 80 kts 115°
2026-04-14 17:28 55.60136 12.07507 766 ft 83 kts 115°
2026-04-14 17:28 55.59872 12.08441 601 ft 86 kts 116°
2026-04-14 17:29 55.59613 12.09374 467 ft 84 kts 115°
2026-04-14 17:29 55.59359 12.10296 346 ft 82 kts 116°
2026-04-14 17:29 55.59114 12.11170 230 ft 76 kts 115°
2026-04-14 17:29 55.58895 12.11948 147 ft 60 kts 115°
2026-04-14 17:30 55.58789 12.12335 141 ft 13 kts 118°
2026-04-14 17:30 55.58795 12.12397 141 ft 6 kts 27°
2026-04-14 17:30 55.58835 12.12433 142 ft 7 kts 26°
2026-04-14 17:30 55.58884 12.12474 143 ft 9 kts 24°
2026-04-14 17:31 55.58945 12.12524 143 ft 10 kts 26°
2026-04-14 17:31 55.59009 12.12581 144 ft 10 kts 26°
2026-04-14 17:31 55.59019 12.12678 145 ft 10 kts 115°
2026-04-14 17:31 55.59018 12.12753 145 ft 6 kts 32°
2026-04-14 17:32 55.59032 12.12757 146 ft 1 kts 14°
2026-04-14 17:32 55.59036 12.12760 146 ft 0 kts 25°